Time,TemperatureF,DewpointF,PressureIn,WindDirection,WindDirectionDegrees,WindSpeedMPH,WindSpeedGustMPH,Humidity,HourlyPrecipIn,Conditions,Clouds,dailyrainin,SolarRadiationWatts/m^2,SoftwareType,DateUTC
2013-08-23 00:01:00,69.3,67.2,29.74,SSW,209,0.0,0.0,93,0.00,,,0.00,0,Wunderground v.1.15,2013-08-23 04:01:00,
2013-08-23 00:02:00,69.3,67.2,29.74,SSW,209,0.0,0.0,93,0.00,,,0.00,0,Wunderground v.1.15,2013-08-23 04:02:00,
2013-08-23 00:03:00,69.2,67.1,29.74,SSW,209,0.0,0.0,93,0.00,,,0.00,0,Wunderground v.1.15,2013-08-23 04:03:00,
2013-08-23 00:04:00,69.2,67.1,29.74,SSW,209,0.0,0.0,93,0.00,,,0.00,0,Wunderground v.1.15,2013-08-23 04:04:00,
2013-08-23 00:08:00,69.2,67.1,29.74,SSW,209,0.0,0.0,93,0.00,,,0.00,0,Wunderground v.1.15,2013-08-23 04:08:00,
2013-08-23 00:14:00,69.1,67.0,29.75,SSW,209,0.0,0.0,93,0.00,,,0.00,0,Wunderground v.1.15,2013-08-23 04:14:00,
2013-08-23 00:19:00,69.0,66.9,29.75,SSW,209,0.0,0.0,93,0.00,,,0.00,0,Wunderground v.1.15,2013-08-23 04:19:00,
2013-08-23 00:24:00,68.9,66.8,29.74,SSW,209,0.0,1.0,93,0.00,,,0.00,0,Wunderground v.1.15,2013-08-23 04:24:00,
2013-08-23 00:30:00,68.8,66.7,29.75,SSW,209,0.0,0.0,93,0.00,,,0.00,0,Wunderground v.1.15,2013-08-23 04:30:00,
2013-08-23 00:36:00,68.8,66.7,29.75,SSW,209,0.0,0.0,93,0.00,,,0.00,0,Wunderground v.1.15,2013-08-23 04:36:00,
2013-08-23 00:41:00,68.8,67.0,29.75,SSW,209,0.0,0.0,94,0.00,,,0.00,0,Wunderground v.1.15,2013-08-23 04:41:00,
2013-08-23 00:47:00,68.8,67.0,29.75,SSW,202,0.0,1.0,94,0.00,,,0.00,0,Wunderground v.1.15,2013-08-23 04:47:00,
2013-08-23 00:53:00,68.8,67.0,29.75,SSW,203,0.0,0.0,94,0.00,,,0.00,0,Wunderground v.1.15,2013-08-23 04:53:00,
2013-08-23 00:59:00,68.8,67.0,29.75,SSW,203,0.0,0.0,94,0.00,,,0.00,0,Wunderground v.1.15,2013-08-23 04:59:00,
2013-08-23 01:05:00,68.8,67.0,29.75,SSW,205,0.0,1.0,94,0.00,,,0.00,0,Wunderground v.1.15,2013-08-23 05:05:00,
2013-08-23 01:11:00,68.9,67.1,29.75,SSW,205,0.0,0.0,94,0.00,,,0.00,0,Wunderground v.1.15,2013-08-23 05:11:00,
2013-08-23 01:16:00,68.9,67.1,29.75,West,265,0.0,0.0,94,0.00,,,0.00,0,Wunderground v.1.15,2013-08-23 05:16:00,
2013-08-23 01:21:00,69.0,67.2,29.75,NW,307,0.0,1.0,94,0.00,,,0.00,0,Wunderground v.1.15,2013-08-23 05:21:00,
2013-08-23 01:27:00,69.1,67.3,29.75,NNE,17,0.0,1.0,94,0.00,,,0.00,0,Wunderground v.1.15,2013-08-23 05:27:00,
2013-08-23 01:33:00,69.2,67.4,29.75,NNE,15,0.0,0.0,94,0.00,,,0.00,0,Wunderground v.1.15,2013-08-23 05:33:00,
2013-08-23 01:38:00,69.2,67.4,29.75,NNE,15,0.0,1.0,94,0.00,,,0.00,0,Wunderground v.1.15,2013-08-23 05:38:00,
2013-08-23 01:44:00,69.3,67.5,29.75,NNE,15,0.0,0.0,94,0.00,,,0.00,0,Wunderground v.1.15,2013-08-23 05:44:00,
2013-08-23 01:49:00,69.4,67.6,29.75,NNE,15,0.0,0.0,94,0.00,,,0.00,0,Wunderground v.1.15,2013-08-23 05:49:00,
2013-08-23 01:55:00,69.4,67.6,29.75,NNE,15,0.0,1.0,94,0.00,,,0.00,0,Wunderground v.1.15,2013-08-23 05:55:00,
2013-08-23 02:01:00,69.4,67.6,29.75,NNE,15,0.0,0.0,94,0.00,,,0.00,0,Wunderground v.1.15,2013-08-23 06:01:00,
2013-08-23 02:07:00,69.5,67.7,29.75,NNE,14,0.0,1.0,94,0.00,,,0.00,0,Wunderground v.1.15,2013-08-23 06:07:00,
2013-08-23 02:12:00,69.5,67.7,29.75,NNE,13,0.0,0.0,94,0.00,,,0.00,0,Wunderground v.1.15,2013-08-23 06:12:00,
2013-08-23 02:17:00,69.5,67.7,29.76,NNW,344,0.0,3.0,94,0.00,,,0.00,0,Wunderground v.1.15,2013-08-23 06:17:00,
2013-08-23 02:22:00,69.6,67.8,29.76,NE,34,1.0,2.0,94,0.00,,,0.00,0,Wunderground v.1.15,2013-08-23 06:22:00,
2013-08-23 02:28:00,69.7,67.6,29.76,NNW,338,1.0,4.0,93,0.00,,,0.00,0,Wunderground v.1.15,2013-08-23 06:28:00,
2013-08-23 02:34:00,69.8,67.7,29.76,NE,36,1.0,3.0,93,0.00,,,0.00,0,Wunderground v.1.15,2013-08-23 06:34:00,
2013-08-23 02:39:00,69.8,67.7,29.77,WNW,290,1.0,3.0,93,0.00,,,0.00,0,Wunderground v.1.15,2013-08-23 06:39:00,
2013-08-23 02:45:00,69.9,67.5,29.77,NNW,346,1.0,3.0,92,0.00,,,0.00,0,Wunderground v.1.15,2013-08-23 06:45:00,
2013-08-23 02:51:00,69.9,67.5,29.77,NNW,344,1.0,1.0,92,0.00,,,0.00,0,Wunderground v.1.15,2013-08-23 06:51:00,
2013-08-23 02:57:00,70.0,67.3,29.77,NNW,348,2.0,4.0,91,0.00,,,0.00,0,Wunderground v.1.15,2013-08-23 06:57:00,
2013-08-23 03:02:00,70.1,67.0,29.77,NNW,344,2.0,2.0,90,0.00,,,0.00,0,Wunderground v.1.15,2013-08-23 07:02:00,
2013-08-23 03:07:00,70.2,66.8,29.77,NNW,344,1.0,5.0,89,0.00,,,0.00,0,Wunderground v.1.15,2013-08-23 07:07:00,
2013-08-23 03:13:00,70.2,66.5,29.77,NW,319,3.0,6.0,88,0.00,,,0.00,0,Wunderground v.1.15,2013-08-23 07:13:00,
2013-08-23 03:18:00,70.2,66.1,29.77,North,355,4.0,8.0,87,0.00,,,0.00,0,Wunderground v.1.15,2013-08-23 07:18:00,
2013-08-23 03:23:00,69.9,65.2,29.77,North,360,5.0,8.0,85,0.00,,,0.00,0,Wunderground v.1.15,2013-08-23 07:23:00,
2013-08-23 03:28:00,69.7,64.6,29.77,North,5,5.0,9.0,84,0.00,,,0.00,0,Wunderground v.1.15,2013-08-23 07:28:00,
2013-08-23 03:33:00,69.5,64.1,29.77,NNE,17,6.0,7.0,83,0.00,,,0.00,0,Wunderground v.1.15,2013-08-23 07:33:00,
2013-08-23 03:38:00,69.3,64.3,29.77,NNW,327,5.0,7.0,84,0.00,,,0.00,0,Wunderground v.1.15,2013-08-23 07:38:00,
2013-08-23 03:43:00,69.1,64.1,29.77,NNW,343,3.0,4.0,84,0.00,,,0.00,0,Wunderground v.1.15,2013-08-23 07:43:00,
2013-08-23 03:48:00,69.0,64.0,29.77,North,355,2.0,4.0,84,0.00,,,0.00,0,Wunderground v.1.15,2013-08-23 07:48:00,
2013-08-23 03:54:00,68.8,64.1,29.77,North,355,2.0,6.0,85,0.00,,,0.00,0,Wunderground v.1.15,2013-08-23 07:54:00,
2013-08-23 03:59:00,68.6,63.9,29.77,North,355,2.0,6.0,85,0.00,,,0.00,0,Wunderground v.1.15,2013-08-23 07:59:00,
2013-08-23 04:04:00,68.4,64.0,29.78,NW,313,2.0,2.0,86,0.00,,,0.00,0,Wunderground v.1.15,2013-08-23 08:04:00,
2013-08-23 04:10:00,68.3,63.9,29.78,NNE,23,2.0,2.0,86,0.00,,,0.00,0,Wunderground v.1.15,2013-08-23 08:10:00,
2013-08-23 04:15:00,68.1,63.8,29.77,NNW,335,3.0,5.0,86,0.00,,,0.00,0,Wunderground v.1.15,2013-08-23 08:15:00,
2013-08-23 04:21:00,67.8,63.8,29.78,NNE,14,3.0,3.0,87,0.00,,,0.00,0,Wunderground v.1.15,2013-08-23 08:21:00,
2013-08-23 04:27:00,67.6,63.6,29.78,NNW,327,2.0,5.0,87,0.00,,,0.00,0,Wunderground v.1.15,2013-08-23 08:27:00,
2013-08-23 04:32:00,67.4,63.4,29.78,NNW,327,2.0,5.0,87,0.00,,,0.00,0,Wunderground v.1.15,2013-08-23 08:32:00,
2013-08-23 04:37:00,67.3,63.6,29.78,NNW,346,1.0,5.0,88,0.00,,,0.00,0,Wunderground v.1.15,2013-08-23 08:37:00,
2013-08-23 04:42:00,67.0,63.3,29.79,North,5,1.0,3.0,88,0.00,,,0.00,0,Wunderground v.1.15,2013-08-23 08:42:00,
2013-08-23 04:48:00,66.8,63.1,29.79,NNE,27,1.0,3.0,88,0.00,,,0.00,0,Wunderground v.1.15,2013-08-23 08:48:00,
2013-08-23 04:54:00,66.5,63.2,29.79,NNW,346,1.0,2.0,89,0.00,,,0.00,0,Wunderground v.1.15,2013-08-23 08:54:00,
2013-08-23 04:59:00,66.3,63.0,29.79,NNW,338,1.0,2.0,89,0.00,,,0.00,0,Wunderground v.1.15,2013-08-23 08:59:00,
2013-08-23 05:04:00,66.1,62.8,29.80,NNW,347,1.0,2.0,89,0.00,,,0.00,0,Wunderground v.1.15,2013-08-23 09:04:00,
2013-08-23 05:09:00,65.9,62.6,29.80,North,350,2.0,3.0,89,0.00,,,0.00,0,Wunderground v.1.15,2013-08-23 09:09:00,
2013-08-23 05:15:00,65.7,62.4,29.80,NW,325,2.0,2.0,89,0.00,,,0.00,0,Wunderground v.1.15,2013-08-23 09:15:00,
2013-08-23 05:21:00,65.6,62.3,29.80,NW,326,2.0,3.0,89,0.00,,,0.00,0,Wunderground v.1.15,2013-08-23 09:21:00,
2013-08-23 05:26:00,65.5,62.5,29.81,WNW,286,2.0,3.0,90,0.00,,,0.00,0,Wunderground v.1.15,2013-08-23 09:26:00,
2013-08-23 05:31:00,65.3,62.3,29.81,NNW,344,1.0,2.0,90,0.00,,,0.00,0,Wunderground v.1.15,2013-08-23 09:31:00,
2013-08-23 05:37:00,65.2,62.2,29.81,North,360,1.0,3.0,90,0.00,,,0.00,0,Wunderground v.1.15,2013-08-23 09:37:00,
2013-08-23 05:43:00,65.0,62.0,29.81,NNE,15,2.0,4.0,90,0.00,,,0.00,0,Wunderground v.1.15,2013-08-23 09:43:00,
2013-08-23 05:48:00,64.9,61.9,29.82,North,355,2.0,4.0,90,0.00,,,0.00,0,Wunderground v.1.15,2013-08-23 09:48:00,
2013-08-23 05:54:00,64.8,61.8,29.82,NW,317,2.0,2.0,90,0.00,,,0.00,0,Wunderground v.1.15,2013-08-23 09:54:00,
2013-08-23 06:00:00,64.7,61.4,29.82,North,355,3.0,3.0,89,0.00,,,0.00,7,Wunderground v.1.15,2013-08-23 10:00:00,
2013-08-23 06:05:00,64.7,61.4,29.82,WNW,297,2.0,5.0,89,0.00,,,0.00,11,Wunderground v.1.15,2013-08-23 10:05:00,
2013-08-23 06:11:00,64.6,61.0,29.83,NW,321,3.0,5.0,88,0.00,,,0.00,16,Wunderground v.1.15,2013-08-23 10:11:00,
2013-08-23 06:16:00,64.6,60.6,29.83,NNW,329,3.0,5.0,87,0.00,,,0.00,16,Wunderground v.1.15,2013-08-23 10:16:00,
2013-08-23 06:21:00,64.5,60.5,29.83,NNE,16,3.0,4.0,87,0.00,,,0.00,16,Wunderground v.1.15,2013-08-23 10:21:00,
2013-08-23 06:27:00,64.4,60.1,29.83,NNW,342,3.0,5.0,86,0.00,,,0.00,14,Wunderground v.1.15,2013-08-23 10:27:00,
2013-08-23 06:32:00,64.3,59.7,29.83,NNW,340,3.0,7.0,85,0.00,,,0.00,16,Wunderground v.1.15,2013-08-23 10:32:00,
2013-08-23 06:37:00,64.3,59.4,29.84,North,355,4.0,7.0,84,0.00,,,0.00,21,Wunderground v.1.15,2013-08-23 10:37:00,
2013-08-23 06:42:00,64.2,59.3,29.85,North,351,3.0,4.0,84,0.00,,,0.00,26,Wunderground v.1.15,2013-08-23 10:42:00,
2013-08-23 06:48:00,64.1,59.2,29.85,NNW,333,3.0,5.0,84,0.00,,,0.00,30,Wunderground v.1.15,2013-08-23 10:48:00,
2013-08-23 06:53:00,64.1,59.2,29.85,NNE,17,5.0,5.0,84,0.00,,,0.00,32,Wunderground v.1.15,2013-08-23 10:53:00,
2013-08-23 06:58:00,64.0,58.7,29.85,North,355,5.0,8.0,83,0.00,,,0.00,33,Wunderground v.1.15,2013-08-23 10:58:00,
2013-08-23 07:03:00,64.0,58.7,29.86,NNE,26,5.0,6.0,83,0.00,,,0.00,32,Wunderground v.1.15,2013-08-23 11:03:00,
2013-08-23 07:08:00,64.0,58.4,29.86,North,10,5.0,11.0,82,0.00,,,0.00,35,Wunderground v.1.15,2013-08-23 11:08:00,
2013-08-23 07:14:00,63.8,58.2,29.86,North,355,5.0,7.0,82,0.00,,,0.00,39,Wunderground v.1.15,2013-08-23 11:14:00,
2013-08-23 07:19:00,63.7,57.8,29.86,NNW,340,5.0,7.0,81,0.00,,,0.00,37,Wunderground v.1.15,2013-08-23 11:19:00,
2013-08-23 07:24:00,63.5,57.6,29.86,NNW,333,5.0,11.0,81,0.00,,,0.00,39,Wunderground v.1.15,2013-08-23 11:24:00,
2013-08-23 07:30:00,63.4,57.5,29.86,NNW,347,5.0,5.0,81,0.00,,,0.00,125,Wunderground v.1.15,2013-08-23 11:30:00,
2013-08-23 07:35:00,63.5,57.6,29.87,NW,317,5.0,5.0,81,0.00,,,0.00,225,Wunderground v.1.15,2013-08-23 11:35:00,
2013-08-23 07:40:00,63.8,57.9,29.87,NNW,328,5.0,10.0,81,0.00,,,0.00,239,Wunderground v.1.15,2013-08-23 11:40:00,
2013-08-23 07:46:00,64.1,57.8,29.87,NNE,22,5.0,11.0,80,0.00,,,0.00,257,Wunderground v.1.15,2013-08-23 11:46:00,
2013-08-23 07:52:00,64.5,57.8,29.88,NNE,28,5.0,11.0,79,0.00,,,0.00,220,Wunderground v.1.15,2013-08-23 11:52:00,
2013-08-23 07:57:00,64.8,58.1,29.88,NNE,17,5.0,11.0,79,0.00,,,0.00,295,Wunderground v.1.15,2013-08-23 11:57:00,
2013-08-23 08:03:00,65.1,57.7,29.88,NW,325,6.0,6.0,77,0.00,,,0.00,251,Wunderground v.1.15,2013-08-23 12:03:00,
2013-08-23 08:09:00,65.4,58.0,29.88,NNW,345,6.0,7.0,77,0.00,,,0.00,178,Wunderground v.1.15,2013-08-23 12:09:00,
2013-08-23 08:14:00,65.5,58.1,29.88,NNW,333,6.0,10.0,77,0.00,,,0.00,204,Wunderground v.1.15,2013-08-23 12:14:00,
2013-08-23 08:19:00,65.6,58.2,29.89,NNW,340,5.0,10.0,77,0.00,,,0.00,385,Wunderground v.1.15,2013-08-23 12:19:00,
2013-08-23 08:24:00,65.7,57.9,29.89,NW,304,5.0,10.0,76,0.00,,,0.00,116,Wunderground v.1.15,2013-08-23 12:24:00,
2013-08-23 08:30:00,65.9,58.1,29.89,NNW,327,5.0,5.0,76,0.00,,,0.00,330,Wunderground v.1.15,2013-08-23 12:30:00,
2013-08-23 08:36:00,66.2,58.0,29.89,NNW,331,5.0,8.0,75,0.00,,,0.00,357,Wunderground v.1.15,2013-08-23 12:36:00,
2013-08-23 08:41:00,66.5,58.0,29.89,NW,320,6.0,10.0,74,0.00,,,0.00,306,Wunderground v.1.15,2013-08-23 12:41:00,
2013-08-23 08:46:00,66.7,58.1,29.89,North,9,6.0,10.0,74,0.00,,,0.00,334,Wunderground v.1.15,2013-08-23 12:46:00,
2013-08-23 08:51:00,66.8,57.9,29.89,NNE,31,6.0,10.0,73,0.00,,,0.00,396,Wunderground v.1.15,2013-08-23 12:51:00,
2013-08-23 08:57:00,66.8,57.9,29.90,NE,42,7.0,10.0,73,0.00,,,0.00,287,Wunderground v.1.15,2013-08-23 12:57:00,
2013-08-23 09:02:00,66.9,58.0,29.90,North,355,6.0,7.0,73,0.00,,,0.00,392,Wunderground v.1.15,2013-08-23 13:02:00,
2013-08-23 09:07:00,67.2,57.9,29.90,NNW,338,5.0,7.0,72,0.00,,,0.00,248,Wunderground v.1.15,2013-08-23 13:07:00,
2013-08-23 09:13:00,67.4,57.7,29.90,NNW,344,4.0,6.0,71,0.00,,,0.00,230,Wunderground v.1.15,2013-08-23 13:13:00,
2013-08-23 09:19:00,67.3,57.6,29.90,NNW,342,5.0,9.0,71,0.00,,,0.00,248,Wunderground v.1.15,2013-08-23 13:19:00,
2013-08-23 09:25:00,67.3,57.6,29.90,NNW,333,5.0,8.0,71,0.00,,,0.00,278,Wunderground v.1.15,2013-08-23 13:25:00,
2013-08-23 09:30:00,67.4,57.7,29.91,NE,40,4.0,4.0,71,0.00,,,0.00,427,Wunderground v.1.15,2013-08-23 13:30:00,
2013-08-23 09:36:00,67.6,57.1,29.91,NW,314,5.0,12.0,69,0.00,,,0.00,373,Wunderground v.1.15,2013-08-23 13:36:00,
2013-08-23 09:41:00,67.9,57.4,29.91,NNE,16,6.0,6.0,69,0.00,,,0.00,355,Wunderground v.1.15,2013-08-23 13:41:00,
2013-08-23 09:47:00,68.3,57.7,29.91,NNW,335,5.0,7.0,69,0.00,,,0.00,429,Wunderground v.1.15,2013-08-23 13:47:00,
2013-08-23 09:52:00,68.8,57.8,29.91,North,355,4.0,5.0,68,0.00,,,0.00,534,Wunderground v.1.15,2013-08-23 13:52:00,
2013-08-23 09:58:00,69.2,58.2,29.91,NNW,329,4.0,9.0,68,0.00,,,0.00,605,Wunderground v.1.15,2013-08-23 13:58:00,
2013-08-23 10:03:00,69.6,58.6,29.91,North,360,3.0,6.0,68,0.00,,,0.00,385,Wunderground v.1.15,2013-08-23 14:03:00,
2013-08-23 10:09:00,70.3,58.8,29.91,ENE,74,4.0,8.0,67,0.00,,,0.00,728,Wunderground v.1.15,2013-08-23 14:09:00,
2013-08-23 10:14:00,70.9,58.5,29.91,NNW,342,4.0,6.0,65,0.00,,,0.00,434,Wunderground v.1.15,2013-08-23 14:14:00,
2013-08-23 10:20:00,71.0,57.3,29.92,NNW,341,4.0,10.0,62,0.00,,,0.00,462,Wunderground v.1.15,2013-08-23 14:20:00,
2013-08-23 10:25:00,70.6,57.8,29.92,North,355,5.0,10.0,64,0.00,,,0.00,346,Wunderground v.1.15,2013-08-23 14:25:00,
2013-08-23 10:31:00,70.6,58.3,29.92,NNW,333,4.0,5.0,65,0.00,,,0.00,411,Wunderground v.1.15,2013-08-23 14:31:00,
2013-08-23 10:37:00,70.3,58.0,29.92,NE,45,4.0,5.0,65,0.00,,,0.00,315,Wunderground v.1.15,2013-08-23 14:37:00,
2013-08-23 10:42:00,70.3,58.4,29.92,NNE,14,4.0,4.0,66,0.00,,,0.00,366,Wunderground v.1.15,2013-08-23 14:42:00,
2013-08-23 10:48:00,70.3,58.0,29.92,NW,309,3.0,6.0,65,0.00,,,0.00,269,Wunderground v.1.15,2013-08-23 14:48:00,
2013-08-23 10:53:00,70.3,57.1,29.93,North,360,4.0,9.0,63,0.00,,,0.00,436,Wunderground v.1.15,2013-08-23 14:53:00,
2013-08-23 10:58:00,70.3,57.1,29.93,NNE,15,5.0,9.0,63,0.00,,,0.00,387,Wunderground v.1.15,2013-08-23 14:58:00,
2013-08-23 11:04:00,70.5,57.7,29.93,NW,325,4.0,5.0,64,0.00,,,0.00,332,Wunderground v.1.15,2013-08-23 15:04:00,
2013-08-23 11:10:00,70.6,57.8,29.93,North,355,4.0,5.0,64,0.00,,,0.00,714,Wunderground v.1.15,2013-08-23 15:10:00,
2013-08-23 11:15:00,70.8,57.6,29.93,NNW,329,4.0,8.0,63,0.00,,,0.00,285,Wunderground v.1.15,2013-08-23 15:15:00,
2013-08-23 11:20:00,70.9,58.1,29.93,NNE,14,4.0,5.0,64,0.00,,,0.00,691,Wunderground v.1.15,2013-08-23 15:20:00,
2013-08-23 11:25:00,71.5,58.7,29.93,West,278,4.0,7.0,64,0.00,,,0.00,696,Wunderground v.1.15,2013-08-23 15:25:00,
2013-08-23 11:31:00,72.3,59.0,29.93,NNW,329,4.0,4.0,63,0.00,,,0.00,898,Wunderground v.1.15,2013-08-23 15:31:00,
2013-08-23 11:36:00,72.6,58.8,29.93,NW,323,3.0,8.0,62,0.00,,,0.00,793,Wunderground v.1.15,2013-08-23 15:36:00,
2013-08-23 11:41:00,72.8,58.6,29.93,NW,304,4.0,4.0,61,0.00,,,0.00,898,Wunderground v.1.15,2013-08-23 15:41:00,
2013-08-23 11:46:00,73.0,58.8,29.93,NNW,329,5.0,7.0,61,0.00,,,0.00,889,Wunderground v.1.15,2013-08-23 15:46:00,
2013-08-23 11:52:00,73.1,58.4,29.93,NNE,26,5.0,5.0,60,0.00,,,0.00,798,Wunderground v.1.15,2013-08-23 15:52:00,
2013-08-23 11:57:00,73.3,57.6,29.93,WSW,242,6.0,6.0,58,0.00,,,0.00,842,Wunderground v.1.15,2013-08-23 15:57:00,
2013-08-23 12:03:00,73.7,57.0,29.93,WNW,302,6.0,10.0,56,0.00,,,0.00,891,Wunderground v.1.15,2013-08-23 16:03:00,
2013-08-23 12:08:00,73.8,57.6,29.92,North,355,6.0,10.0,57,0.00,,,0.00,814,Wunderground v.1.15,2013-08-23 16:08:00,
2013-08-23 12:13:00,73.9,58.2,29.92,NNE,24,6.0,10.0,58,0.00,,,0.00,807,Wunderground v.1.15,2013-08-23 16:13:00,
2013-08-23 12:18:00,74.0,58.3,29.92,NE,35,7.0,10.0,58,0.00,,,0.00,819,Wunderground v.1.15,2013-08-23 16:18:00,
2013-08-23 12:23:00,74.1,57.4,29.92,NNW,340,6.0,12.0,56,0.00,,,0.00,824,Wunderground v.1.15,2013-08-23 16:23:00,
2013-08-23 12:29:00,74.8,58.1,29.92,NW,305,5.0,12.0,56,0.00,,,0.00,831,Wunderground v.1.15,2013-08-23 16:29:00,
2013-08-23 12:35:00,74.9,59.6,29.92,SSW,192,4.0,12.0,59,0.00,,,0.00,893,Wunderground v.1.15,2013-08-23 16:35:00,
2013-08-23 12:40:00,74.8,58.5,29.92,North,355,4.0,4.0,57,0.00,,,0.00,893,Wunderground v.1.15,2013-08-23 16:40:00,
2013-08-23 12:46:00,74.5,58.3,29.92,NNE,20,5.0,10.0,57,0.00,,,0.00,858,Wunderground v.1.15,2013-08-23 16:46:00,
2013-08-23 12:51:00,74.7,56.9,29.93,NNW,338,6.0,9.0,54,0.00,,,0.00,900,Wunderground v.1.15,2013-08-23 16:51:00,
2013-08-23 12:56:00,74.4,57.2,29.92,WSW,255,6.0,9.0,55,0.00,,,0.00,842,Wunderground v.1.15,2013-08-23 16:56:00,
2013-08-23 13:02:00,74.8,58.1,29.92,WNW,282,5.0,6.0,56,0.00,,,0.00,846,Wunderground v.1.15,2013-08-23 17:02:00,
2013-08-23 13:07:00,75.1,56.8,29.92,NW,323,5.0,12.0,53,0.00,,,0.00,905,Wunderground v.1.15,2013-08-23 17:07:00,
2013-08-23 13:12:00,75.1,56.8,29.92,West,267,5.0,8.0,53,0.00,,,0.00,846,Wunderground v.1.15,2013-08-23 17:12:00,
2013-08-23 13:18:00,75.1,56.8,29.92,West,281,6.0,11.0,53,0.00,,,0.00,816,Wunderground v.1.15,2013-08-23 17:18:00,
2013-08-23 13:23:00,75.5,56.6,29.92,NNW,333,5.0,9.0,52,0.00,,,0.00,807,Wunderground v.1.15,2013-08-23 17:23:00,
2013-08-23 13:28:00,75.3,55.9,29.92,North,355,5.0,9.0,51,0.00,,,0.00,812,Wunderground v.1.15,2013-08-23 17:28:00,
2013-08-23 13:33:00,75.5,56.1,29.93,NNW,329,5.0,8.0,51,0.00,,,0.00,809,Wunderground v.1.15,2013-08-23 17:33:00,
2013-08-23 13:39:00,75.6,57.3,29.93,North,9,5.0,8.0,53,0.00,,,0.00,795,Wunderground v.1.15,2013-08-23 17:39:00,
2013-08-23 13:44:00,75.9,56.5,29.93,North,360,5.0,9.0,51,0.00,,,0.00,798,Wunderground v.1.15,2013-08-23 17:44:00,
2013-08-23 13:50:00,76.0,55.5,29.93,NNW,330,6.0,6.0,49,0.00,,,0.00,791,Wunderground v.1.15,2013-08-23 17:50:00,
2013-08-23 13:55:00,75.8,55.3,29.93,NNW,337,7.0,8.0,49,0.00,,,0.00,777,Wunderground v.1.15,2013-08-23 17:55:00,
2013-08-23 14:00:00,75.6,55.1,29.93,NNW,329,7.0,7.0,49,0.00,,,0.00,786,Wunderground v.1.15,2013-08-23 18:00:00,
2013-08-23 14:06:00,75.6,54.5,29.93,North,355,7.0,12.0,48,0.00,,,0.00,773,Wunderground v.1.15,2013-08-23 18:06:00,
2013-08-23 14:12:00,75.8,55.8,29.93,NNW,337,6.0,7.0,50,0.00,,,0.00,761,Wunderground v.1.15,2013-08-23 18:12:00,
2013-08-23 14:18:00,76.1,54.4,29.93,West,273,5.0,8.0,47,0.00,,,0.00,766,Wunderground v.1.15,2013-08-23 18:18:00,
2013-08-23 14:24:00,76.2,54.5,29.93,North,360,6.0,7.0,47,0.00,,,0.00,749,Wunderground v.1.15,2013-08-23 18:24:00,
2013-08-23 14:30:00,76.3,53.4,29.93,WSW,254,5.0,7.0,45,0.00,,,0.00,751,Wunderground v.1.15,2013-08-23 18:30:00,
2013-08-23 14:35:00,76.7,52.5,29.93,NW,311,5.0,11.0,43,0.00,,,0.00,751,Wunderground v.1.15,2013-08-23 18:35:00,
2013-08-23 14:40:00,76.7,52.5,29.93,North,355,5.0,5.0,43,0.00,,,0.00,752,Wunderground v.1.15,2013-08-23 18:40:00,
2013-08-23 14:46:00,76.4,54.1,29.93,NNW,329,5.0,8.0,46,0.00,,,0.00,722,Wunderground v.1.15,2013-08-23 18:46:00,
2013-08-23 14:51:00,76.5,52.3,29.94,North,355,6.0,12.0,43,0.00,,,0.00,707,Wunderground v.1.15,2013-08-23 18:51:00,
2013-08-23 14:57:00,76.4,51.0,29.94,NNW,348,6.0,13.0,41,0.00,,,0.00,584,Wunderground v.1.15,2013-08-23 18:57:00,
2013-08-23 15:02:00,76.4,51.6,29.94,NNW,331,5.0,13.0,42,0.00,,,0.00,710,Wunderground v.1.15,2013-08-23 19:02:00,
2013-08-23 15:08:00,76.7,52.5,29.94,WNW,298,4.0,13.0,43,0.00,,,0.00,689,Wunderground v.1.15,2013-08-23 19:08:00,
2013-08-23 15:13:00,76.9,53.3,29.94,West,267,4.0,8.0,44,0.00,,,0.00,677,Wunderground v.1.15,2013-08-23 19:13:00,
2013-08-23 15:18:00,77.0,51.5,29.94,NW,323,4.0,11.0,41,0.00,,,0.00,668,Wunderground v.1.15,2013-08-23 19:18:00,
2013-08-23 15:24:00,76.2,51.4,29.94,NNW,341,7.0,11.0,42,0.00,,,0.00,647,Wunderground v.1.15,2013-08-23 19:24:00,
2013-08-23 15:30:00,75.8,51.1,29.94,North,355,7.0,9.0,42,0.00,,,0.00,636,Wunderground v.1.15,2013-08-23 19:30:00,
2013-08-23 15:35:00,75.5,52.1,29.94,NNE,19,8.0,10.0,44,0.00,,,0.00,650,Wunderground v.1.15,2013-08-23 19:35:00,
2013-08-23 15:41:00,75.6,51.5,29.94,NNE,24,6.0,7.0,43,0.00,,,0.00,624,Wunderground v.1.15,2013-08-23 19:41:00,
2013-08-23 15:47:00,75.5,51.4,29.94,WNW,293,6.0,9.0,43,0.00,,,0.00,573,Wunderground v.1.15,2013-08-23 19:47:00,
2013-08-23 15:52:00,75.5,51.4,29.94,NW,312,6.0,6.0,43,0.00,,,0.00,550,Wunderground v.1.15,2013-08-23 19:52:00,
2013-08-23 15:57:00,75.6,52.8,29.95,NE,34,5.0,6.0,45,0.00,,,0.00,619,Wunderground v.1.15,2013-08-23 19:57:00,
2013-08-23 16:03:00,75.5,52.7,29.94,NNE,13,5.0,8.0,45,0.00,,,0.00,563,Wunderground v.1.15,2013-08-23 20:03:00,
2013-08-23 16:09:00,75.6,52.1,29.95,NNW,342,5.0,8.0,44,0.00,,,0.00,582,Wunderground v.1.15,2013-08-23 20:09:00,
2013-08-23 16:15:00,75.7,51.0,29.95,North,355,6.0,12.0,42,0.00,,,0.00,538,Wunderground v.1.15,2013-08-23 20:15:00,
2013-08-23 16:21:00,75.6,51.5,29.95,NNW,331,7.0,12.0,43,0.00,,,0.00,517,Wunderground v.1.15,2013-08-23 20:21:00,
2013-08-23 16:27:00,75.6,51.5,29.95,NW,321,5.0,12.0,43,0.00,,,0.00,496,Wunderground v.1.15,2013-08-23 20:27:00,
2013-08-23 16:33:00,75.8,52.3,29.95,NW,316,3.0,8.0,44,0.00,,,0.00,482,Wunderground v.1.15,2013-08-23 20:33:00,
2013-08-23 16:38:00,75.7,51.6,29.95,NW,315,4.0,8.0,43,0.00,,,0.00,450,Wunderground v.1.15,2013-08-23 20:38:00,
2013-08-23 16:43:00,75.7,51.6,29.95,NNW,346,5.0,10.0,43,0.00,,,0.00,452,Wunderground v.1.15,2013-08-23 20:43:00,
2013-08-23 16:49:00,75.8,51.7,29.95,WNW,298,4.0,10.0,43,0.00,,,0.00,434,Wunderground v.1.15,2013-08-23 20:49:00,
2013-08-23 16:54:00,75.7,52.2,29.96,WNW,295,3.0,10.0,44,0.00,,,0.00,346,Wunderground v.1.15,2013-08-23 20:54:00,
2013-08-23 17:00:00,75.6,52.1,29.96,West,276,4.0,4.0,44,0.00,,,0.00,355,Wunderground v.1.15,2013-08-23 21:00:00,
2013-08-23 17:05:00,75.4,52.6,29.96,North,5,4.0,8.0,45,0.00,,,0.00,404,Wunderground v.1.15,2013-08-23 21:05:00,
2013-08-23 17:11:00,75.1,52.9,29.96,North,5,6.0,10.0,46,0.00,,,0.00,127,Wunderground v.1.15,2013-08-23 21:11:00,
2013-08-23 17:17:00,74.9,52.7,29.97,NNW,327,6.0,10.0,46,0.00,,,0.00,105,Wunderground v.1.15,2013-08-23 21:17:00,
2013-08-23 17:22:00,74.7,53.1,29.97,NNW,336,5.0,6.0,47,0.00,,,0.00,91,Wunderground v.1.15,2013-08-23 21:22:00,
2013-08-23 17:27:00,74.4,53.4,29.97,WNW,286,5.0,10.0,48,0.00,,,0.00,51,Wunderground v.1.15,2013-08-23 21:27:00,
2013-08-23 17:33:00,74.1,53.2,29.97,NNE,12,6.0,12.0,48,0.00,,,0.00,42,Wunderground v.1.15,2013-08-23 21:33:00,
2013-08-23 17:38:00,73.9,53.5,29.97,North,355,6.0,12.0,49,0.00,,,0.00,72,Wunderground v.1.15,2013-08-23 21:38:00,
2013-08-23 17:43:00,73.7,53.9,29.97,North,360,6.0,11.0,50,0.00,,,0.00,84,Wunderground v.1.15,2013-08-23 21:43:00,
2013-08-23 17:48:00,73.4,53.6,29.98,NNW,340,5.0,11.0,50,0.00,,,0.00,62,Wunderground v.1.15,2013-08-23 21:48:00,
2013-08-23 17:54:00,73.2,53.4,29.98,NNW,339,5.0,6.0,50,0.00,,,0.00,56,Wunderground v.1.15,2013-08-23 21:54:00,
2013-08-23 18:00:00,73.0,54.3,29.98,NNW,334,4.0,4.0,52,0.00,,,0.00,49,Wunderground v.1.15,2013-08-23 22:00:00,
2013-08-23 18:06:00,72.8,54.1,29.98,NW,324,4.0,9.0,52,0.00,,,0.00,32,Wunderground v.1.15,2013-08-23 22:06:00,
2013-08-23 18:11:00,72.6,54.0,29.98,NNW,334,4.0,6.0,52,0.00,,,0.00,32,Wunderground v.1.15,2013-08-23 22:11:00,
2013-08-23 18:17:00,72.3,54.2,29.99,NNW,335,5.0,10.0,53,0.00,,,0.00,30,Wunderground v.1.15,2013-08-23 22:17:00,
2013-08-23 18:23:00,72.1,54.0,29.99,NE,55,6.0,9.0,53,0.00,,,0.00,35,Wunderground v.1.15,2013-08-23 22:23:00,
2013-08-23 18:29:00,71.9,53.3,29.99,North,355,5.0,9.0,52,0.00,,,0.00,28,Wunderground v.1.15,2013-08-23 22:29:00,
2013-08-23 18:35:00,71.7,53.7,30.00,NE,44,4.0,5.0,53,0.00,,,0.00,28,Wunderground v.1.15,2013-08-23 22:35:00,
2013-08-23 18:41:00,71.5,53.5,30.00,NNW,333,4.0,6.0,53,0.00,,,0.00,25,Wunderground v.1.15,2013-08-23 22:41:00,
2013-08-23 18:46:00,71.3,53.3,30.00,NNW,346,3.0,6.0,53,0.00,,,0.00,25,Wunderground v.1.15,2013-08-23 22:46:00,
2013-08-23 18:52:00,71.1,54.1,30.00,North,355,3.0,3.0,55,0.00,,,0.00,19,Wunderground v.1.15,2013-08-23 22:52:00,
2013-08-23 18:58:00,70.8,54.3,30.01,North,5,2.0,3.0,56,0.00,,,0.00,18,Wunderground v.1.15,2013-08-23 22:58:00,
2013-08-23 19:04:00,70.5,54.5,30.01,NNW,333,3.0,3.0,57,0.00,,,0.00,16,Wunderground v.1.15,2013-08-23 23:04:00,
2013-08-23 19:10:00,70.3,54.8,30.01,NNW,338,1.0,1.0,58,0.00,,,0.00,12,Wunderground v.1.15,2013-08-23 23:10:00,
2013-08-23 19:16:00,70.0,55.0,30.02,NNW,338,0.0,1.0,59,0.00,,,0.00,11,Wunderground v.1.15,2013-08-23 23:16:00,
2013-08-23 19:22:00,69.7,55.2,30.02,NNW,338,0.0,0.0,60,0.00,,,0.00,7,Wunderground v.1.15,2013-08-23 23:22:00,
2013-08-23 19:27:00,69.3,55.3,30.02,NNE,14,0.0,1.0,61,0.00,,,0.00,5,Wunderground v.1.15,2013-08-23 23:27:00,
2013-08-23 19:33:00,68.8,55.2,30.02,NNW,327,0.0,1.0,62,0.00,,,0.00,0,Wunderground v.1.15,2013-08-23 23:33:00,
2013-08-23 19:38:00,68.3,55.6,30.02,NNW,344,0.0,1.0,64,0.00,,,0.00,0,Wunderground v.1.15,2013-08-23 23:38:00,
2013-08-23 19:44:00,67.9,55.7,30.03,NNW,344,0.0,0.0,65,0.00,,,0.00,0,Wunderground v.1.15,2013-08-23 23:44:00,
2013-08-23 19:49:00,67.6,55.4,30.03,NNW,344,0.0,0.0,65,0.00,,,0.00,0,Wunderground v.1.15,2013-08-23 23:49:00,
2013-08-23 19:55:00,67.2,55.5,30.03,NNW,344,0.0,0.0,66,0.00,,,0.00,0,Wunderground v.1.15,2013-08-23 23:55:00,
2013-08-23 20:00:00,66.8,55.5,30.04,NNW,344,0.0,0.0,67,0.00,,,0.00,0,Wunderground v.1.15,2013-08-24 00:00:00,
2013-08-23 20:06:00,66.4,55.9,30.04,NNW,344,0.0,0.0,69,0.00,,,0.00,0,Wunderground v.1.15,2013-08-24 00:06:00,
2013-08-23 20:11:00,66.0,55.5,30.05,NNW,344,0.0,0.0,69,0.00,,,0.00,0,Wunderground v.1.15,2013-08-24 00:11:00,
2013-08-23 20:17:00,65.5,55.8,30.05,NNW,344,0.0,0.0,71,0.00,,,0.00,0,Wunderground v.1.15,2013-08-24 00:17:00,
2013-08-23 20:23:00,65.0,55.4,30.06,NNW,344,0.0,0.0,71,0.00,,,0.00,0,Wunderground v.1.15,2013-08-24 00:23:00,
2013-08-23 20:29:00,64.6,55.4,30.06,NNE,24,0.0,1.0,72,0.00,,,0.00,0,Wunderground v.1.15,2013-08-24 00:29:00,
2013-08-23 20:34:00,64.1,55.3,30.06,NNE,23,0.0,1.0,73,0.00,,,0.00,0,Wunderground v.1.15,2013-08-24 00:34:00,
2013-08-23 20:40:00,63.7,55.3,30.06,NNE,19,0.0,0.0,74,0.00,,,0.00,0,Wunderground v.1.15,2013-08-24 00:40:00,
2013-08-23 20:46:00,63.3,54.9,30.06,North,5,0.0,3.0,74,0.00,,,0.00,0,Wunderground v.1.15,2013-08-24 00:46:00,
2013-08-23 20:51:00,63.1,54.7,30.06,NW,311,1.0,2.0,74,0.00,,,0.00,0,Wunderground v.1.15,2013-08-24 00:51:00,
2013-08-23 20:57:00,63.0,54.6,30.07,NNW,339,1.0,2.0,74,0.00,,,0.00,0,Wunderground v.1.15,2013-08-24 00:57:00,
2013-08-23 21:02:00,63.0,54.2,30.07,North,355,2.0,3.0,73,0.00,,,0.00,0,Wunderground v.1.15,2013-08-24 01:02:00,
2013-08-23 21:08:00,63.0,54.2,30.07,NNW,337,2.0,4.0,73,0.00,,,0.00,0,Wunderground v.1.15,2013-08-24 01:08:00,
2013-08-23 21:14:00,63.1,53.9,30.07,NNW,330,2.0,3.0,72,0.00,,,0.00,0,Wunderground v.1.15,2013-08-24 01:14:00,
2013-08-23 21:19:00,63.0,53.4,30.08,NW,323,2.0,5.0,71,0.00,,,0.00,0,Wunderground v.1.15,2013-08-24 01:19:00,
2013-08-23 21:25:00,63.1,53.2,30.08,NW,326,2.0,3.0,70,0.00,,,0.00,0,Wunderground v.1.15,2013-08-24 01:25:00,
2013-08-23 21:31:00,63.3,53.3,30.08,North,355,3.0,5.0,70,0.00,,,0.00,0,Wunderground v.1.15,2013-08-24 01:31:00,
2013-08-23 21:36:00,63.2,53.6,30.08,North,355,2.0,5.0,71,0.00,,,0.00,0,Wunderground v.1.15,2013-08-24 01:36:00,
2013-08-23 21:41:00,63.1,53.2,30.08,NW,323,1.0,4.0,70,0.00,,,0.00,0,Wunderground v.1.15,2013-08-24 01:41:00,
2013-08-23 21:46:00,62.9,53.0,30.08,NNE,32,2.0,5.0,70,0.00,,,0.00,0,Wunderground v.1.15,2013-08-24 01:46:00,
2013-08-23 21:51:00,62.7,52.8,30.08,NNE,17,2.0,2.0,70,0.00,,,0.00,0,Wunderground v.1.15,2013-08-24 01:51:00,
2013-08-23 21:56:00,62.5,52.6,30.08,NNW,331,2.0,4.0,70,0.00,,,0.00,0,Wunderground v.1.15,2013-08-24 01:56:00,
2013-08-23 22:02:00,62.5,52.2,30.08,NNW,327,3.0,4.0,69,0.00,,,0.00,0,Wunderground v.1.15,2013-08-24 02:02:00,
2013-08-23 22:07:00,62.5,52.2,30.08,NNW,342,3.0,4.0,69,0.00,,,0.00,0,Wunderground v.1.15,2013-08-24 02:07:00,
2013-08-23 22:13:00,62.4,52.1,30.08,NNW,342,2.0,3.0,69,0.00,,,0.00,0,Wunderground v.1.15,2013-08-24 02:13:00,
2013-08-23 22:18:00,62.2,51.9,30.09,NE,48,2.0,5.0,69,0.00,,,0.00,0,Wunderground v.1.15,2013-08-24 02:18:00,
2013-08-23 22:24:00,62.1,51.8,30.09,NW,321,2.0,3.0,69,0.00,,,0.00,0,Wunderground v.1.15,2013-08-24 02:24:00,
2013-08-23 22:29:00,62.0,51.7,30.09,North,360,2.0,4.0,69,0.00,,,0.00,0,Wunderground v.1.15,2013-08-24 02:29:00,
2013-08-23 22:34:00,61.8,51.5,30.09,NW,318,2.0,4.0,69,0.00,,,0.00,0,Wunderground v.1.15,2013-08-24 02:34:00,
2013-08-23 22:39:00,61.7,51.8,30.09,NNW,331,2.0,4.0,70,0.00,,,0.00,0,Wunderground v.1.15,2013-08-24 02:39:00,
2013-08-23 22:44:00,61.5,51.6,30.09,NE,50,1.0,3.0,70,0.00,,,0.00,0,Wunderground v.1.15,2013-08-24 02:44:00,
2013-08-23 22:49:00,61.3,51.4,30.10,NNW,344,1.0,3.0,70,0.00,,,0.00,0,Wunderground v.1.15,2013-08-24 02:49:00,
2013-08-23 22:55:00,61.1,51.6,30.10,NNW,331,1.0,1.0,71,0.00,,,0.00,0,Wunderground v.1.15,2013-08-24 02:55:00,
2013-08-23 23:01:00,60.9,51.4,30.10,NNW,330,0.0,0.0,71,0.00,,,0.00,0,Wunderground v.1.15,2013-08-24 03:01:00,
2013-08-23 23:06:00,60.7,51.2,30.11,North,360,1.0,1.0,71,0.00,,,0.00,0,Wunderground v.1.15,2013-08-24 03:06:00,
2013-08-23 23:11:00,60.6,51.1,30.11,North,11,0.0,0.0,71,0.00,,,0.00,0,Wunderground v.1.15,2013-08-24 03:11:00,
2013-08-23 23:16:00,60.4,51.0,30.11,NNE,30,0.0,1.0,71,0.00,,,0.00,0,Wunderground v.1.15,2013-08-24 03:16:00,
2013-08-23 23:21:00,60.3,51.2,30.11,NNW,344,0.0,0.0,72,0.00,,,0.00,0,Wunderground v.1.15,2013-08-24 03:21:00,
2013-08-23 23:26:00,60.1,51.0,30.12,NNW,346,0.0,0.0,72,0.00,,,0.00,0,Wunderground v.1.15,2013-08-24 03:26:00,
2013-08-23 23:31:00,60.0,50.9,30.12,NNW,346,0.0,0.0,72,0.00,,,0.00,0,Wunderground v.1.15,2013-08-24 03:31:00,
2013-08-23 23:36:00,59.8,50.8,30.12,NNW,346,0.0,0.0,72,0.00,,,0.00,0,Wunderground v.1.15,2013-08-24 03:36:00,
2013-08-23 23:42:00,59.6,50.9,30.12,NNW,346,0.0,0.0,73,0.00,,,0.00,0,Wunderground v.1.15,2013-08-24 03:42:00,
2013-08-23 23:48:00,59.4,50.7,30.13,NNW,346,0.0,0.0,73,0.00,,,0.00,0,Wunderground v.1.15,2013-08-24 03:48:00,
2013-08-23 23:53:00,59.2,50.5,30.13,NNW,346,0.0,0.0,73,0.00,,,0.00,0,Wunderground v.1.15,2013-08-24 03:53:00,
2013-08-23 23:59:00,58.9,50.6,30.13,NNW,346,0.0,0.0,74,0.00,,,0.00,0,Wunderground v.1.15,2013-08-24 03:59:00,